Flag for USA

Past Weather in Cincinnati, Ohio, USA — Yesterday and Last 2 Weeks

Now
86 °F

Sunny.


Feels Like: 90 °F
Forecast: 93 / 69 °F
Wind: No wind

Location: Cincinnati Municipal Airport Lunken Field

Current Time: Jul 4, 2020 at 12:13:54 pm

Latest Report: Jul 4, 2020 at 10:53 am


Visibility: 10 mi

Pressure: 29.98 "Hg

Humidity: 57%

Dew Point: 69 °F

Location of CincinnatiLocation

Past Weather in Cincinnati — Graph

°F

Cincinnati Temperature Yesterday

Maximum temperature yesterday: 91 °F (at 3:53 pm)
Minimum temperature yesterday: 64 °F (at 6:10 am)
Average temperature yesterday: 77 °F

High & Low Weather Summary for the Past Weeks

 TemperatureHumidityPressure
High91 °F (Jul 1, 4:53 pm)100% (Jun 29, 2:53 am)30.09 "Hg (Jun 29, 2:53 am)
Low57 °F (Jun 25, 5:42 am)37% (Jun 19, 6:53 pm)29.69 "Hg (Jun 23, 7:53 am)
Average74 °F78%29.93 "Hg
* Reported Jun 19 10:53 am — Jul 4 10:53 am, Cincinnati. Weather by CustomWeather, © 2020

Note: Actual official high and low records may vary slightly from our data, if they occured in-between our weather recording intervals... More about our weather records

Cincinnati Weather History for the Previous 24 Hours

Scroll right to see more
 ConditionsComfort  
Time TempWeatherWind HumidityBarometerVisibility
10:53 am
Sat, Jul 4
86 °FSunny.No wind57%29.98 "Hg10 mi
9:53 am82 °FSunny.No wind65%29.98 "Hg8 mi
8:53 am76 °FSunny.No wind82%29.98 "Hg6 mi
7:53 am71 °FFog.No wind90%29.98 "Hg3 mi
6:53 am67 °FFog.No wind97%29.97 "Hg3 mi
6:29 am67 °FFog.No wind97%29.99 "Hg1 mi
6:14 am66 °FFog.No wind93%29.98 "Hg1 mi
5:53 am65 °FFog.No wind100%29.96 "Hg1 mi
5:01 am68 °FFog.No wind93%29.97 "Hg2 mi
4:29 am67 °FFog.No wind97%29.97 "Hg1 mi
3:53 am68 °FFog.No wind96%29.96 "Hg2 mi
3:19 am68 °FFog.No wind93%29.97 "Hg2 mi
2:53 am68 °FFog.No wind93%29.96 "Hg4 mi
1:53 am69 °FFog.No wind93%29.97 "Hg5 mi
12:53 am70 °FClear.No wind90%29.98 "Hg9 mi
11:53 pm
Fri, Jul 3
71 °FClear.3 mph87%29.98 "Hg10 mi
10:53 pm72 °FClear.No wind87%29.97 "Hg10 mi
9:53 pm74 °FClear.No wind85%29.95 "Hg10 mi
8:53 pm78 °FSunny.3 mph79%29.93 "Hg10 mi
7:53 pm84 °FSunny.No wind70%29.92 "Hg10 mi
6:53 pm85 °FScattered clouds.No wind65%29.93 "Hg10 mi
5:53 pm90 °FSunny.5 mph41%29.94 "Hg10 mi
4:53 pm90 °FPassing clouds.3 mph37%29.95 "Hg10 mi
3:53 pm91 °FPassing clouds.No wind37%29.97 "Hg10 mi
2:53 pm89 °FScattered clouds.No wind42%29.98 "Hg10 mi
1:53 pm89 °FScattered clouds.6 mph43%30.00 "Hg10 mi
12:53 pm89 °FBroken clouds.No wind42%30.01 "Hg10 mi
Weather by CustomWeather, © 2020

See weather overview